Location: Hoover
(45.1124°N, 103.2678°W)
Time: 04:15:37
(UTC+00:00)

N. Korean satellite - Pass Details

Date: 27 November 2020
Orbit: 453 x 502 km, 97.2° (Epoch: 16 January)

Event Time Altitude Azimuth Distance (km) Brightness Sun altitude
Rises 12:11:52 0° 16° (NNE) 2,548 10.3 -19.9°
Reaches altitude 10° 12:13:57 10° 21° (NNE) 1,672 9.4 -19.5°
Maximum altitude 12:17:30 56° 100° (E) 586 7.2 -18.9°
Drops below altitude 10° 12:21:04 10° 180° (S) 1,683 9.4 -18.3°
Sets 12:23:10 0° 184° (S) 2,567 10.3 -17.9°
